| time (UTC) | temp F | wind direction | speed knots | gust knots | rain 1hr in | rain 24hr in | rain mn in | humidity % | barometer mb |
| 20260505024603 | 55 | 347 | 11.3 | 16.5 | 0.00 | 0.00 | 0.00 | 31 | 1007.2 |
| 20260505022103 | 56 | 359 | 8.7 | 15.6 | 0.00 | 0.00 | 0.00 | 31 | 1006.5 |
| 20260505020603 | 57 | 349 | 11.3 | 18.2 | 0.00 | 0.00 | 0.00 | 31 | 1006.6 |
| 20260505013603 | 58 | 350 | 13.9 | 24.3 | 0.00 | 0.00 | 0.00 | 29 | 1006.1 |
| 20260505013103 | 58 | 352 | 15.6 | 24.3 | 0.00 | 0.00 | 0.00 | 29 | 1005.8 |
| 20260505012603 | 59 | 351 | 15.6 | 23.5 | 0.00 | 0.00 | 0.00 | 28 | 1005.8 |
| 20260505010602 | 60 | 347 | 14.8 | 21.7 | 0.00 | 0.00 | 0.00 | 26 | 1005.6 |
| 20260505004603 | 63 | 343 | 12.2 | 19.1 | 0.00 | 0.00 | 0.00 | 24 | 1004.9 |
| 20260505000103 | 67 | 338 | 13.0 | 22.6 | 0.00 | 0.00 | 0.00 | 21 | 1004.1 |
| 20260504235103 | 68 | 341 | 12.2 | 20.0 | 0.00 | 0.00 | 0.00 | 21 | 1004.0 |
| 20260504234103 | 69 | 337 | 13.0 | 21.7 | 0.00 | 0.00 | 0.00 | 19 | 1003.9 |
| 20260504233104 | 70 | 341 | 13.0 | 20.0 | 0.00 | 0.00 | 0.00 | 19 | 1003.6 |
| 20260504225603 | 71 | 347 | 16.5 | 25.2 | 0.00 | 0.00 | 0.00 | 17 | 1003.0 |
| 20260504224103 | 72 | 333 | 14.8 | 22.6 | 0.00 | 0.00 | 0.00 | 17 | 1002.7 |
| 20260504223103 | 73 | 337 | 14.8 | 20.9 | 0.00 | 0.00 | 0.00 | 16 | 1002.6 |
| 20260504222103 | 73 | 337 | 15.6 | 23.5 | 0.00 | 0.00 | 0.00 | 16 | 1002.5 |
| 20260504221603 | 74 | 337 | 13.9 | 20.9 | 0.00 | 0.00 | 0.00 | 16 | 1002.3 |
| 20260504221103 | 74 | 339 | 13.9 | 20.9 | 0.00 | 0.00 | 0.00 | 16 | 1002.1 |
| 20260504215103 | 75 | 340 | 13.0 | 19.1 | 0.00 | 0.00 | 0.00 | 16 | 1002.2 |
| 20260504214603 | 76 | 339 | 11.3 | 19.1 | 0.00 | 0.00 | 0.00 | 16 | 1002.1 |
| 20260504214103 | 76 | 339 | 10.4 | 19.1 | 0.00 | 0.00 | 0.00 | 17 | 1002.0 |
| 20260504212603 | 76 | 332 | 11.3 | 16.5 | 0.00 | 0.00 | 0.00 | 16 | 1001.7 |
| 20260504202103 | 77 | 324 | 10.4 | 17.4 | 0.00 | 0.00 | 0.00 | 19 | 1001.4 |
| 20260504201603 | 77 | 335 | 12.2 | 20.9 | 0.00 | 0.00 | 0.00 | 20 | 1001.4 |
| 20260504200104 | 77 | 341 | 9.6 | 16.5 | 0.00 | 0.00 | 0.00 | 22 | 1001.3 |
| 20260504193603 | 77 | 330 | 13.0 | 19.1 | 0.00 | 0.00 | 0.00 | 23 | 1001.2 |
| 20260504192602 | 78 | 320 | 13.0 | 20.9 | 0.00 | 0.00 | 0.00 | 23 | 1001.0 |
| 20260504190104 | 79 | 319 | 10.4 | 18.2 | 0.00 | 0.00 | 0.00 | 20 | 1000.8 |
| 20260504185603 | 79 | 310 | 11.3 | 18.2 | 0.00 | 0.00 | 0.00 | 18 | 1000.8 |
| 20260504183602 | 79 | 323 | 13.0 | 21.7 | 0.00 | 0.00 | 0.00 | 19 | 1000.8 |
| 20260504182603 | 79 | 312 | 12.2 | 22.6 | 0.00 | 0.00 | 0.00 | 16 | 1000.7 |
| 20260504181602 | 79 | 318 | 13.0 | 20.0 | 0.00 | 0.00 | 0.00 | 18 | 1000.7 |
| 20260504181103 | 79 | 322 | 11.3 | 20.0 | 0.00 | 0.00 | 0.00 | 18 | 1000.7 |
| 20260504180103 | 79 | 298 | 9.6 | 16.5 | 0.00 | 0.00 | 0.00 | 18 | 1000.8 |
| 20260504174104 | 79 | 300 | 8.7 | 18.2 | 0.00 | 0.00 | 0.00 | 17 | 1000.8 |
| 20260504171104 | 77 | 297 | 12.2 | 18.2 | 0.00 | 0.00 | 0.00 | 19 | 1000.9 |
| 20260504170603 | 77 | 287 | 11.3 | 21.7 | 0.00 | 0.00 | 0.00 | 19 | 1000.9 |
| 20260504141103 | 62 | 272 | 4.3 | 6.1 | 0.00 | 0.00 | 0.00 | 38 | 1001.6 |
| 20260504140103 | 61 | 287 | 4.3 | 7.0 | 0.00 | 0.00 | 0.00 | 41 | 1001.5 |
| 20260504130602 | 56 | 0 | 0.0 | 0.0 | 0.00 | 0.00 | 0.00 | 50 | 1001.4 |
| 20260504130103 | 56 | 0 | 0.0 | 0.0 | 0.00 | 0.00 | 0.00 | 52 | 1001.4 |
| 20260504110603 | 51 | 0 | 0.0 | 0.0 | 0.00 | 0.00 | 0.00 | 49 | 1001.3 |
| 20260504090104 | 53 | 117 | 0.0 | 0.9 | 0.00 | 0.00 | 0.00 | 47 | 1002.2 |
| 20260504081104 | 55 | 153 | 0.9 | 1.7 | 0.00 | 0.00 | 0.00 | 44 | 1002.8 |
| 20260504050603 | 62 | 214 | 0.0 | 0.9 | 0.00 | 0.00 | 0.00 | 30 | 1005.6 |
| 20260504050105 | 62 | 214 | 0.0 | 0.9 | 0.00 | 0.00 | 0.00 | 30 | 1005.5 |
| 20260504044103 | 64 | 0 | 0.0 | 0.0 | 0.00 | 0.00 | 0.00 | 28 | 1005.6 |
| 20260504043603 | 64 | 0 | 0.0 | 0.0 | 0.00 | 0.00 | 0.00 | 28 | 1005.6 |
| 20260504040103 | 63 | 214 | 0.9 | 1.7 | 0.00 | 0.00 | 0.00 | 30 | 1006.1 |
| 20260504035603 | 63 | 214 | 0.9 | 1.7 | 0.00 | 0.00 | 0.00 | 30 | 1006.2 |
| 20260504035103 | 63 | 215 | 0.0 | 1.7 | 0.00 | 0.00 | 0.00 | 30 | 1006.3 |
| 20260504033603 | 63 | 215 | 0.9 | 1.7 | 0.00 | 0.00 | 0.00 | 30 | 1006.4 |
| 20260504030603 | 63 | 253 | 1.7 | 4.3 | 0.00 | 0.00 | 0.00 | 30 | 1006.7 |